Wind_Speed
3 16 18 17 17 16 15 13 11 10 9 8 8 8 8 9 10 12 11 11 10 10 10 10 11 10 8 6 5 4 4 5 7 10 13 14 14 14 15 15 15 15 15
3 11 16 17 16 16 16 14 12 10 9 8 8 8 7 7 9 9 10 10 11 11 11 11 11 10 7 6 5 7 5 8 9 11 12 12 13 14 14 14 14 14 15
3 9 15 16 15 15 15 14 13 12 10 9 9 8 8 7 8 8 10 11 11 12 12 12 11 9 7 6 7 6 6 7 10 12 11 11 12 13 13 14 13 13 16
2 7 12 13 12 13 13 13 13 13 12 12 10 10 9 7 7 8 10 10 11 11 12 12 11 9 8 8 8 6 6 8 10 11 12 12 12 12 14 13 13 14 15
2 4 7 9 10 10 11 12 13 13 14 14 13 12 11 10 8 8 9 10 10 11 11 12 11 10 9 10 9 8 9 10 11 12 12 12 12 12 13 12 13 14 14
4 3 3 4 5 8 11 12 13 13 14 15 15 14 13 12 10 9 9 10 10 10 11 12 11 11 11 12 11 9 10 10 11 11 11 11 10 9 11 14 14 14 14
6 2 1 1 4 8 11 13 12 13 14 15 16 16 16 15 12 12 11 11 11 11 12 12 11 11 12 13 12 11 12 12 11 10 9 11 10 9 10 13 14 14 15
8 7 5 4 5 6 8 11 12 13 14 16 16 17 17 17 15 14 14 13 12 12 12 12 12 12 13 14 13 13 14 13 13 12 11 10 10 12 11 13 15 15 14
7 6 5 5 7 6 5 7 11 13 14 16 17 18 19 18 18 16 16 15 14 13 13 12 12 13 14 15 14 14 15 15 14 14 13 10 11 13 13 14 16 17 16
6 5 3 5 6 5 5 6 9 14 15 16 17 19 19 20 19 18 17 17 15 14 14 14 14 14 15 15 15 16 16 16 15 14 14 11 12 13 14 15 16 18 17
6 6 4 2 4 5 5 6 7 11 16 17 18 18 20 22 22 20 19 19 18 17 16 16 16 16 17 17 17 17 18 17 16 14 17 12 13 14 15 16 17 17 18
3 4 7 7 8 8 8 8 10 10 12 16 18 19 20 22 23 22 21 20 20 20 19 18 18 18 19 20 20 20 20 19 18 17 15 14 14 15 16 17 17 18 19
4 2 6 6 8 9 11 9 12 13 12 15 17 17 20 22 22 23 23 23 23 24 24 22 22 23 22 22 21 22 22 21 21 20 16 16 13 14 16 17 18 19 19
6 5 3 4 7 8 8 10 11 13 13 15 18 20 18 20 23 24 25 26 27 27 27 26 25 24 24 24 23 24 24 24 23 23 19 19 18 16 16 17 18 19 20
5 4 2 2 5 7 7 8 9 12 14 14 16 21 23 21 21 22 25 27 29 30 31 30 29 28 27 27 26 26 25 26 26 26 26 22 21 19 18 18 17 18 21
3 1 2 4 5 7 9 10 11 11 13 14 14 17 20 24 26 24 24 26 29 32 34 34 33 31 30 29 29 29 28 28 28 28 28 26 23 21 20 19 19 18 22
7 8 8 8 10 11 11 12 13 14 15 15 16 16 15 17 17 23 24 30 27 33 36 35 34 33 33 32 33 32 31 30 31 31 30 29 26 24 23 22 20 20 21
13 14 15 14 14 15 16 16 17 17 17 17 17 18 18 19 20 21 22 26 41 30 41 35 32 33 33 35 36 35 35 33 33 33 33 34 31 27 26 25 22 20 21
18 19 20 21 21 19 18 20 21 20 19 19 20 22 22 21 23 26 27 23 27 41 43 21 26 27 31 36 37 39 38 36 36 35 37 35 34 31 29 27 25 22 22
19 21 22 23 24 24 23 22 21 23 24 23 23 24 25 26 26 26 28 26 25 34 39 32 44 24 29 35 40 39 40 38 39 38 37 36 36 35 33 30 28 27 25
20 22 25 26 27 28 30 31 27 26 28 29 30 30 32 31 30 29 30 31 27 30 32 25 39 55 46 38 36 41 38 38 43 41 42 40 37 38 36 34 32 31 29
22 23 23 25 27 29 31 32 34 37 33 31 33 35 35 36 35 35 33 34 31 31 31 34 28 39 64 65 40 38 30 33 41 44 43 45 42 40 38 37 36 35 34
27 29 29 28 28 28 30 33 34 35 38 37 34 34 34 37 37 35 34 34 36 30 33 31 31 36 44 54 60 37 24 22 30 45 44 45 43 43 41 40 39 39 39
28 28 29 29 29 30 28 30 32 34 37 38 38 38 37 31 35 34 33 32 35 34 34 37 33 33 45 54 56 49 43 26 19 29 36 44 43 45 43 42 42 42 41
29 31 31 30 31 30 29 28 30 32 33 36 37 36 35 35 30 30 30 28 32 35 34 38 37 27 43 59 54 49 36 36 32 32 20 24 32 41 47 46 44 44 45
30 31 31 31 31 31 30 29 29 28 29 31 32 32 32 31 27 27 28 27 28 33 33 35 39 37 32 48 60 62 59 41 40 40 36 34 36 35 30 30 38 48 48
Wind_Direction
60 183 181 184 182 186 191 190 188 188 186 175 158 148 136 130 142 160 160 162 166 171 173 168 173 169 166 165 159 171 169 128 133 141 144 143 139 141 141 137 131 132 136
150 190 192 191 188 189 192 194 196 194 198 192 175 163 155 144 153 158 165 168 172 174 174 173 176 180 178 179 183 184 169 141 145 148 148 144 144 145 143 141 139 140 139
165 201 202 202 195 195 200 198 199 198 200 198 190 181 171 165 162 166 171 176 180 179 177 175 180 186 191 191 186 187 158 153 147 148 148 150 149 150 149 150 151 149 146
98 189 207 211 211 210 211 210 207 204 200 198 197 191 185 185 183 180 182 184 186 185 185 183 186 190 193 189 191 180 171 162 155 153 157 156 156 161 159 162 156 155 154
87 158 193 214 221 228 232 229 221 213 206 200 199 200 197 197 203 200 195 193 194 194 197 197 194 193 191 192 193 192 178 172 166 163 163 166 166 164 167 167 162 160 162
19 110 141 187 221 244 247 241 236 227 217 209 203 202 205 205 210 213 210 203 202 204 204 207 203 198 193 195 198 199 185 177 170 168 172 174 173 175 172 172 166 168 172
36 49 55 273 297 289 272 254 242 236 230 220 212 209 210 209 213 217 220 216 213 209 206 208 208 204 197 198 204 203 189 184 179 181 176 177 181 189 183 179 176 179 175
55 45 31 355 333 318 282 252 253 244 236 230 224 218 215 214 217 221 222 221 220 219 216 214 212 207 199 206 212 210 196 191 195 188 178 180 190 192 192 189 184 180 181
29 22 24 0 351 350 326 265 253 256 251 242 233 227 223 221 222 224 225 225 224 224 225 222 217 211 207 215 218 219 211 199 202 198 201 196 190 192 196 197 190 185 185
351 349 353 349 349 343 336 302 281 267 260 249 241 235 230 226 226 228 228 228 230 230 228 226 222 216 215 222 224 224 221 214 213 212 207 206 205 201 195 199 198 194 190
304 291 261 263 265 288 281 279 290 272 263 259 247 238 232 228 227 226 229 232 231 232 232 231 227 222 219 224 230 227 225 224 221 220 209 220 214 209 201 201 205 205 196
252 235 237 245 257 266 280 290 285 300 267 263 260 247 236 234 232 232 233 235 236 235 233 233 233 229 223 223 228 229 229 225 223 222 225 221 220 212 208 206 210 213 206
83 174 220 240 265 269 280 275 291 308 300 278 263 260 253 246 242 240 239 238 239 239 236 233 230 229 228 225 227 233 233 230 224 222 227 224 215 213 212 209 211 216 215
105 113 154 221 257 277 285 283 282 287 286 285 272 269 266 261 257 250 247 244 242 241 242 239 238 236 233 230 229 232 235 233 229 225 225 224 221 218 216 214 215 218 222
108 106 153 237 263 277 293 290 285 294 299 301 288 285 271 268 265 259 256 254 250 249 246 243 242 241 239 235 233 233 234 237 234 228 224 225 225 225 226 223 222 221 225
55 12 332 289 287 277 271 280 281 280 285 292 293 288 285 279 268 263 263 258 257 254 251 247 244 244 245 243 240 238 236 235 237 236 228 225 228 231 226 228 228 227 226
355 341 315 298 296 291 284 276 278 277 275 276 281 287 289 292 288 268 265 252 264 260 255 250 247 244 247 248 246 242 241 236 236 235 235 227 228 233 229 229 235 230 229
343 336 333 323 316 306 295 289 286 284 281 277 277 279 281 283 285 285 277 297 280 281 258 244 240 247 249 251 252 248 243 241 238 236 235 233 232 233 230 227 228 230 231
339 332 327 324 318 312 305 298 297 296 289 287 282 279 279 279 280 281 283 282 281 293 286 262 250 243 256 259 255 255 248 245 241 238 236 234 236 234 233 234 230 230 232
338 333 328 325 321 316 309 301 294 292 291 287 284 281 279 279 279 278 280 279 271 273 283 282 273 261 263 265 264 259 255 249 245 239 237 234 233 235 235 237 237 234 229
337 333 331 327 324 320 315 311 300 292 288 289 289 287 285 285 282 279 278 280 274 270 272 269 250 240 252 255 264 260 255 249 247 241 237 235 235 235 236 238 238 239 239
341 337 332 327 323 320 316 313 310 308 300 292 290 288 287 285 285 283 279 274 273 264 259 257 266 239 236 244 256 254 248 249 243 238 236 236 236 235 236 238 240 241 241
345 342 338 333 327 321 317 311 307 302 299 298 290 286 286 284 283 280 277 270 268 260 251 247 242 243 231 242 249 247 246 237 237 238 235 235 233 233 238 240 243 244 245
347 345 342 338 335 327 322 316 313 309 304 302 301 298 294 287 282 282 276 268 262 259 249 244 243 239 239 233 227 235 244 238 237 231 233 235 236 238 240 242 245 246 248
350 352 348 344 341 337 333 328 323 318 316 312 310 306 303 300 291 287 283 271 261 257 248 244 236 230 239 234 227 236 237 249 249 243 235 232 235 240 243 246 248 250 250
354 353 348 346 347 343 339 336 331 329 327 322 317 313 309 302 300 298 297 284 262 257 250 240 236 231 232 239 230 227 233 248 243 254 246 241 243 242 248 262 262 256 252
Height
1505 1506 1508 1510 1510 1513 1515 1516 1516 1516 1516 1514 1514 1515 1516 1517 1518 1519 1520 1521 1522 1523 1525 1527 1528 1530 1530 1531 1531 1532 1532 1533 1534 1534 1534 1535 1535 1536 1537 1538 1539 1541 1542
1507 1508 1509 1509 1510 1511 1512 1514 1516 1518 1518 1517 1516 1516 1517 1519 1519 1520 1521 1522 1522 1524 1525 1527 1529 1530 1531 1531 1531 1531 1532 1532 1533 1534 1535 1536 1537 1538 1538 1539 1540 1542 1543
1507 1508 1509 1511 1511 1511 1513 1513 1514 1516 1518 1519 1519 1518 1518 1519 1520 1522 1522 1523 1523 1524 1525 1527 1529 1530 1531 1532 1532 1532 1532 1532 1533 1533 1534 1536 1537 1539 1540 1541 1542 1542 1544
1508 1508 1509 1511 1512 1513 1514 1514 1514 1515 1516 1519 1520 1520 1520 1520 1521 1523 1524 1524 1524 1525 1526 1527 1528 1530 1531 1531 1532 1533 1533 1533 1533 1534 1535 1535 1537 1539 1541 1543 1542 1543 1545
1509 1510 1511 1512 1513 1514 1515 1515 1515 1515 1515 1516 1518 1520 1521 1522 1522 1523 1524 1525 1526 1526 1528 1528 1528 1530 1531 1531 1531 1532 1532 1533 1534 1535 1536 1536 1538 1539 1540 1542 1544 1545 1545
1511 1512 1513 1512 1513 1513 1514 1515 1515 1515 1515 1516 1516 1517 1520 1521 1522 1523 1524 1524 1526 1527 1527 1529 1530 1530 1531 1531 1532 1533 1534 1534 1535 1536 1537 1537 1538 1539 1540 1541 1544 1545 1546
1513 1514 1514 1514 1515 1515 1514 1516 1516 1517 1517 1517 1517 1517 1517 1518 1520 1521 1522 1523 1525 1526 1527 1528 1529 1530 1531 1532 1533 1533 1534 1535 1536 1536 1537 1538 1539 1540 1541 1542 1543 1545 1547
1515 1516 1516 1516 1516 1514 1512 1513 1515 1516 1516 1517 1518 1518 1517 1517 1518 1519 1520 1522 1523 1525 1527 1527 1528 1530 1531 1532 1532 1533 1534 1536 1536 1536 1537 1538 1538 1540 1541 1543 1544 1545 1548
1514 1515 1516 1516 1515 1514 1513 1513 1513 1514 1515 1516 1517 1517 1518 1518 1518 1519 1520 1521 1522 1523 1525 1526 1528 1530 1531 1532 1532 1533 1534 1535 1536 1537 1537 1538 1538 1539 1541 1543 1543 1545 1546
1512 1513 1515 1515 1514 1512 1512 1512 1512 1513 1513 1513 1514 1516 1517 1518 1518 1519 1520 1521 1522 1523 1524 1525 1526 1528 1530 1531 1532 1532 1533 1534 1535 1536 1537 1538 1538 1539 1540 1542 1544 1544 1545
1511 1512 1512 1512 1511 1510 1509 1509 1509 1509 1510 1511 1512 1513 1514 1514 1516 1517 1518 1519 1520 1521 1522 1524 1524 1525 1527 1529 1530 1532 1533 1533 1534 1535 1537 1537 1537 1538 1539 1540 1543 1544 1545
1509 1509 1510 1509 1509 1507 1507 1508 1507 1507 1506 1508 1509 1510 1511 1512 1513 1515 1516 1517 1518 1518 1519 1521 1522 1524 1524 1526 1527 1529 1531 1532 1533 1534 1536 1537 1537 1537 1538 1539 1541 1543 1544
1506 1507 1507 1506 1505 1505 1505 1505 1507 1506 1506 1506 1505 1508 1509 1509 1510 1512 1513 1514 1514 1515 1516 1517 1517 1519 1521 1522 1524 1526 1528 1529 1530 1531 1533 1535 1536 1536 1537 1537 1539 1541 1543
1507 1505 1505 1505 1504 1502 1502 1503 1502 1502 1503 1503 1503 1504 1503 1504 1506 1508 1508 1509 1510 1511 1512 1514 1515 1516 1518 1519 1521 1522 1523 1526 1527 1529 1530 1531 1534 1534 1535 1535 1536 1538 1541
1506 1505 1504 1503 1502 1501 1500 1501 1500 1500 1500 1499 1500 1500 1499 1501 1501 1502 1502 1503 1505 1506 1507 1508 1510 1512 1514 1515 1516 1518 1520 1522 1524 1526 1527 1529 1531 1532 1533 1535 1535 1536 1539
1505 1504 1503 1501 1500 1498 1497 1497 1496 1496 1496 1496 1495 1495 1495 1495 1496 1497 1498 1498 1498 1500 1499 1501 1503 1506 1509 1512 1512 1513 1515 1517 1519 1522 1523 1525 1527 1528 1529 1531 1533 1533 1535
1505 1503 1501 1500 1499 1497 1495 1494 1493 1493 1492 1492 1491 1491 1491 1490 1490 1489 1491 1492 1493 1494 1492 1493 1495 1499 1502 1506 1507 1508 1510 1512 1515 1517 1519 1521 1522 1524 1525 1527 1529 1530 1531
1504 1502 1501 1499 1497 1496 1494 1492 1491 1489 1488 1488 1488 1487 1486 1485 1484 1484 1484 1481 1483 1481 1482 1482 1481 1490 1494 1500 1502 1503 1504 1506 1509 1512 1514 1516 1518 1519 1522 1522 1524 1525 1527
1502 1500 1499 1497 1494 1493 1491 1490 1488 1486 1484 1483 1482 1482 1481 1480 1479 1477 1477 1477 1475 1469 1463 1456 1478 1477 1488 1493 1495 1498 1499 1500 1503 1506 1507 1510 1513 1515 1516 1518 1520 1521 1523
1501 1499 1497 1494 1491 1488 1486 1485 1483 1481 1479 1477 1476 1475 1474 1473 1472 1471 1469 1469 1469 1466 1461 1463 1471 1476 1478 1486 1489 1492 1493 1493 1497 1500 1501 1504 1506 1509 1511 1513 1515 1516 1517
1499 1496 1492 1489 1486 1482 1478 1475 1475 1474 1472 1470 1467 1465 1464 1463 1462 1462 1461 1461 1461 1460 1457 1457 1461 1471 1470 1479 1484 1484 1485 1484 1486 1492 1494 1497 1499 1502 1504 1507 1509 1510 1512
1497 1494 1490 1487 1483 1478 1474 1470 1466 1462 1462 1461 1458 1455 1454 1452 1451 1450 1451 1451 1452 1451 1452 1453 1454 1457 1463 1473 1476 1478 1477 1476 1477 1480 1483 1488 1491 1495 1497 1499 1502 1503 1506
1494 1490 1486 1482 1479 1475 1470 1465 1462 1457 1453 1450 1449 1448 1445 1442 1441 1440 1441 1441 1443 1444 1444 1447 1449 1451 1451 1464 1467 1472 1469 1466 1469 1470 1472 1476 1481 1485 1488 1491 1494 1496 1499
1492 1488 1483 1479 1475 1471 1466 1461 1456 1451 1445 1442 1437 1434 1432 1432 1430 1429 1429 1430 1431 1433 1434 1437 1441 1443 1445 1445 1453 1442 1460 1454 1460 1460 1462 1465 1471 1475 1478 1482 1486 1489 1493
1489 1483 1480 1475 1470 1466 1461 1457 1452 1446 1440 1433 1429 1426 1422 1420 1419 1417 1418 1419 1420 1420 1422 1424 1429 1431 1432 1434 1437 1448 1448 1449 1452 1457 1456 1456 1460 1466 1469 1473 1477 1481 1484
1487 1482 1478 1473 1468 1463 1458 1453 1448 1442 1436 1430 1425 1420 1415 1412 1409 1408 1408 1408 1409 1408 1410 1413 1417 1420 1421 1422 1425 1432 1438 1440 1446 1449 1451 1451 1455 1457 1460 1466 1470 1473 1475